BREEZE-M DEB (TANK), 42751

Orbit data source: Space-Track

BREEZE-M DEB (TANK), 42751 is space debris in HEO originally from a launch on Thu, 08 Jun 2017 UTC launched from the Tyuratam Missile And Space Complex (TTMTR). Debris objects in space refer to the collection of defunct objects orbiting the Earth. Examples of debris include non-operational satellites, rocket bodies, and fragments generated from explosions, collisions, or faulty payload assembly.

Loading next visibility...
Identifier
42751, 2017-032C
Orbit
HEO
Country
Flag of CISCIS
Related business
Manufacturer
Khrunichev
Mission
Spacecraft
Bus & Motor
BRIZ TANK, Unknown motor
Mass
~1,000 kg wet, 1,000 kg dry
Launch date (UTC)
2017-06-08 (8 years ago)
Launch vehicle
Unknown
Launch site
Tyuratam Missile And Space Complex (TTMTR)
Object type
Payload
Rocket body
Debris
Shape & HBR
Torus, 2.0 m
Radar Cross Section
8.218 m², Large (>1 m²)

Expand to show TLE details & history
Last TLE update: 11 hours ago

TLE from 11 hours ago
0 BREEZE-M DEB (TANK)
1 42751U 17032C   25308.87021636  .00004845  00000-0  80907-3 0  9991
2 42751  49.6949 128.1677 4554272  63.3824 335.9410  6.36508030191792
Epoch: 2025-11-04T20:53Z
TLE epoch observation values (Epoch: 2025-11-04T20:53:06.693Z)
Latitude
-0.00003°
Longitude
130.5283°
Altitude
1,714.126 km
Speed
8.132 km/s
True Right ascension
08h 32m 37s
True Declination
0° 00' 00"
Sunlit
Object was in daylight at epoch
Visualization orbit readout
Latitude
Unknown
Longitude
Unknown
Altitude
Unknown
Speed
Unknown
Apparent Right ascension
Unknown
Apparent Declination
Unknown
Sunlit
N/A
Visualization observer readout
Local Sidereal Time
03:43:42
Azimuth
Unknown
Elevation
Unknown
Doppler factor
Unknown
Orbital elements
Apogee altitude
11,522.956 km
Perigee altitude
319.861 km
Semi-major axis
12,299.545 km
Eccentricity
0.45543
Inclination
49.6949°
RAAN
128.1677°
Arg. of periapsis
63.3824°
True anomaly
296.76329°
Mean anomaly
335.941°
Eccentric anomaly
318.7287°
Mean motion
1.59114 °/min
Orbital period
226.25 mins
BSTAR
0.00080907
Loading maneuver chart data...
Computing Atmospheric mass density...
Loading historical data...
Loading historical data...
Loading historical data...
Loading historical data...
Loading historical data...
Loading historical data...
Loading historical data...
Other satellites on launch #32 in the year 2017 (2017-06-08 UTC)

Documentation

Showing up to 5 results
|